Погода в Тайшете

Россия / Иркутская область     55°56′25″N   98°00′10″E
темп.,
°C
ветер,
м/с
пор.,
м/с
влажн.,
%
обл.,
%
осадки,
мм/ч
давл.,
гПа
погр.,
м
4 июля, пн
пн423:00+13юз23925 0.1 100749
02:00+11зюз229498 0.1 100719
05:00+10з11940 0.0 100810
08:00+15зюз1281100 0.0 1009271
11:00+20з2355100 0.0 10071283
14:00+22зсз234399 0.1 10072061
17:00+21с2248100 0.0 1007769
20:00+21ссз115978 0.0 100748
5 июля, вт
вт523:00+15з117389 0.0 100711
02:00+12в00853 0.0 100810
05:00+11юв11880 0.0 100710
08:00+17вюв23660 0.0 1007232
11:00+23вюв34420 0.0 10051607
14:00+26вюв24325 0.0 10042655
17:00+27юв343031 0.0 10022768
20:00+23юв25513 0.0 1002144
6 июля, ср
ср623:00+17вюв24650 0.0 100254
02:00+14в310750 0.0 1002186
05:00+13в39733 0.0 1001178
08:00+18в495926 0.0 1001342
11:00+25вюв46405 0.0 10001296
14:00+28вюв23325 0.0 9992314
17:00+29с32297 0.0 9982777
20:00+19з71380100 0.1 1001522
7 июля, чт
чт723:00+17зюз488999 0.3 1004435
02:00+14зюз31094100 0.3 1005419
05:00+13зюз399697 0.1 1006266
08:00+14зюз3994100 0.4 1006348
11:00+15з2795100 0.6 1007321
14:00+16юз1391100 0.7 1007185
17:00+22зюз236249 0.2 1006902
20:00+20з1279100 0.7 100640
8 июля, пт
пт823:00+15зюз239394 0.9 100744
02:00+13юз239496 1.0 100758
05:00+12юз269597 0.0 1007120
08:00+16зюз388731 0.0 1007393
11:00+21з465438 0.0 10061413
14:00+24з454398 0.0 10052263
17:00+21зсз475777 0.0 1005739
20:00+20зсз366665 0.0 1005758